{"data":{"norad_id":53991,"intl_designator":"2022-125AD","name":"STARLINK-5118","alt_names":[],"object_type":"PAYLOAD","status":"ACTIVE","operator":null,"country":"US","launch_date":"2022-10-05","launch_site_code":"AFWTR","launch_vehicle":null,"mission":null,"orbit_class":"UNKNOWN","rcs_meters":null,"size_class":null,"mass_kg":null,"dimensions":null,"purposes":["comms"],"wikipedia_slug":null,"has_3d_model":false,"image_url":null,"decayed_at":null,"tle_current":{"epoch":"2026-05-25T04:49:49.053216Z","epoch_age_seconds":54502,"freshness":"FRESH","line1":"1 53991U 22125AD  26145.20126219 -.00001499  00000+0 -76066-4 0  9993","line2":"2 53991  53.2146 220.5786 0001012  75.6656 284.4449 15.08854965201143","mean_motion":15.08854965,"eccentricity":0.0001012,"inclination_deg":53.2146,"raan_deg":220.5786,"arg_perigee_deg":75.6656,"mean_anomaly_deg":284.4449,"bstar":-7.6066e-5,"rev_number":20114,"period_min":95.436608116937,"perigee_km":538.9975624577,"apogee_km":540.39773219032,"semimajor_km":6917.834647324,"source":"CELESTRAK","updated_at":"2026-05-25T13:38:17.621761Z"}}}